Malaysia Virtual Airlines Airport Information Service

Denpasar / Ngurah-Rai

ICAO: WADD Country: Indonesia
Latitude: -8.75 Longitude: 115.167
Latest Arrival : OD157A (WMKK-WADD) Latest Departure : MHJUMP (WADD-WMKK)


WX CaptureLIVE
Data provided by noaa.gov | Fetched at 16:43:39

METAR : WADD 261600Z 13004KT 9999 FEW017 26/24 Q1012 NOSIG

TAF : WADD 261100Z 2612/2712 13010KT 9999 SCT017 BECMG 2614/2616 VRB03KT BECMG 2702/2704 12010KT


Runway Data for WADD
Data provided by openaviationdata.com

Runway ID Mag Var Hdg Length Elevation Surface ILS Freq ILS Id ILS Slope
9 1 86° 9829 ft 14 ft Asphalt -- -- --
27 1 266° 9829 ft 14 ft Asphalt 110.3 IDPS 3

Denpasar / Ngurah-Rai, Indonesia
Use only for reference purposes



Not for navigational purposes.